Regional Weather Roundup
Issued by NWS

Home | Current Version | Previous Version | Graphics & Text | Print | Product List | Glossary On
Versions: 1 2 3 4 5 6 7 8 9 10 11 12 13 14 15 16 17 18 19 20 21 22 23 24 25 26 27 28 29 30 31 32 33 34 35 36 37 38 39 40 41 42 43 44 45 46 47 48 49 50
000
ASUS43 KOAX 181602
RWRNE

WEATHER ROUNDUP FOR NEBRASKA
NATIONAL WEATHER SERVICE OMAHA NE
1000 AM CST WED JAN 18 2017

NOTES: SATELLITE DATA IS BEING USED TO AUGMENT CLOUD COVER ABOVE
       12000 FEET.
       "FAIR" INDICATES FEW OR NO CLOUDS BELOW 12,000 FEET WITH NO
       SIGNIFICANT WEATHER AND/OR OBSTRUCTIONS TO VISIBILITY.

  * THESE STATIONS DO NOT REPORT WEATHER SUCH AS RAIN...SNOW OR FOG.

NEZ001>004-019>022-054>056-181700-
NEBRASKA PANHANDLE

CITY           SKY/WX    TMP DP  RH WIND       PRES   REMARKS
SCOTTSBLUFF    CLOUDY    31  17  56 NW5       29.89F WCI  26
ALLIANCE       CLOUDY    33  23  66 W5        29.85S WCI  29
CHADRON        CLOUDY    23  14  68 W8        29.83F WCI  14
KIMBALL        CLOUDY    33  22  64 W9        29.88F WCI  25
SIDNEY         CLOUDY    36  21  54 W12       29.89F WCI  28
$$

NEZ057>060-069>072-079>082-181700-
SOUTHWEST NEBRASKA

CITY           SKY/WX    TMP DP  RH WIND       PRES   REMARKS
NORTH PLATTE   CLOUDY    30  25  81 W7        29.93R HAZE    WCI  23
IMPERIAL       CLOUDY    27  21  78 W6        29.92F WCI  20
LEXINGTON      CLOUDY    32  29  88 W5        29.94F WCI  27
MCCOOK         MOSUNNY   33  30  88 W5        29.94F WCI  29
OGALLALA       CLOUDY    27  23  84 W7        29.91F WCI  20
$$

NEZ005>010-023>029-035>040-094-181700-
NORTH CENTRAL NEBRASKA

CITY           SKY/WX    TMP DP  RH WIND       PRES   REMARKS
VALENTINE      CLOUDY    30  22  72 SW6       29.84F WCI  24
AINSWORTH      MOSUNNY   35  25  67 SW5       29.85S WCI  31
BROKEN BOW     CLOUDY    31  27  85 W5        29.91S WCI  26
O`NEILL        CLOUDY    36  29  78 S12       29.88R WCI  27
ORD            CLOUDY    32  27  81 S6        29.92F WCI  26
THEDFORD       MOSUNNY   35  25  67 SW6       29.88R WCI  30
$$

NEZ041-046>049-061>064-073>077-083>087-181700-
SOUTH CENTRAL NEBRASKA

CITY           SKY/WX    TMP DP  RH WIND       PRES   REMARKS
GRAND ISLAND   SUNNY     38  33  82 S10       29.96S WCI  31
AURORA         SUNNY     36  32  85 S9        29.98S WCI  29
HASTINGS       SUNNY     35  30  82 S12       29.99S WCI  27
HEBRON         CLOUDY    38  33  82 S5        30.04R WCI  35
HOLDREGE       CLOUDY    35  31  87 S9        29.97S WCI  28
KEARNEY *      CLOUDY    36  28  75 S13       29.95F WCI  27
YORK           SUNNY     36  32  87 S9        30.00R WCI  29
$$

NEZ011>018-030>034-042>045-181700-
NORTHEAST NEBRASKA

CITY           SKY/WX    TMP DP  RH WIND       PRES   REMARKS
NORFOLK        SUNNY     38  31  76 VRB3      29.93F
ALBION         SUNNY     34  30  86 S6        29.94F WCI  28
BLAIR          SUNNY     34  32  90 S3        30.01R
FREMONT        SUNNY     37  32  84 S6        30.01S WCI  32
TEKAMAH        SUNNY     35  31  85 S12       30.00S WCI  27
WAYNE          SUNNY     36  32  87 SW12      29.92F WCI  28
$$

NEZ050>053-065>068-078-088>093-181700-
SOUTHEAST NEBRASKA

CITY           SKY/WX    TMP DP  RH WIND       PRES   REMARKS
LINCOLN        SUNNY     36  32  85 S6        30.04S WCI  31
OMAHA EPPLEY   MOSUNNY   33  29  85 S13       30.04S WCI  24
BEATRICE       CLOUDY    36  33  86 S5        30.05F WCI  32
FALLS CITY     SUNNY     34  31  88 S8        30.09S WCI  27
NEBRASKA CITY  SUNNY     33  31  92 S9        30.06S WCI  25
PLATTSMOUTH    SUNNY     33  29  84 S8        30.05R WCI  26
$$

NEZ044-045-051>053-067-181700-
OMAHA AREA

CITY           SKY/WX    TMP DP  RH WIND       PRES   REMARKS
OMAHA EPPLEY   MOSUNNY   33  29  85 S13       30.04S WCI  24
BLAIR          SUNNY     34  32  90 S3        30.01R
FREMONT        SUNNY     37  32  84 S6        30.01S WCI  32
MILLARD        SUNNY     35  32  88 SE5       30.04R WCI  31
OFFUTT AFB     SUNNY     32  32 100 SE7       30.04S WCI  26
PLATTSMOUTH    SUNNY     33  29  84 S8        30.05R WCI  26
WAHOO          FAIR      35  32  87 S6        30.02R WCI  30
$$




USA.gov is the U.S. government's official web portal to all federal, state and local government web resources and services.